CAPE
3983 3820 3918 3836 3605 3373 3357 3326 3271 3160 2920 2337 1904 1882 1753 1763 1532 1242 1162 1156 941 791 859 1108 992 874 636 514 499 364 451 467 676 478 879 806 664 515 476 469 467 451
4208 4064 3986 3906 3834 3591 3616 3392 3362 3193 3140 2777 2398 2242 2070 1828 1608 1182 1070 1074 1078 759 1041 987 1066 882 644 568 722 698 706 696 635 354 723 841 780 602 480 427 440 456
4574 4366 4192 3875 3510 3454 3214 3372 3318 3441 3168 2894 2516 2266 2093 1941 1756 1185 1191 944 1024 914 951 1137 1025 879 790 666 715 674 662 784 606 349 618 755 702 619 591 374 406 444
4867 4558 4366 4086 3558 3357 3462 3296 3556 3620 3040 2934 2550 2161 1980 1878 1841 1367 1254 918 1040 1034 1012 1043 1020 877 837 852 897 743 695 771 663 553 643 743 648 561 458 398 332 367
5013 4926 4617 4398 4052 3503 3615 3631 3520 3452 3222 2850 2632 2208 2082 1884 1856 1687 1305 1139 1040 1061 1040 1050 1062 1011 1054 980 905 878 611 702 626 675 680 654 741 618 461 371 432 412
5044 5240 4948 4722 4364 3852 3676 3920 3825 3290 3329 2834 2649 2263 2109 2116 1904 1757 1406 1235 900 946 614 852 1037 906 976 1023 941 830 624 456 404 515 562 443 470 392 372 356 394 442
5196 5359 5279 4740 4518 4040 3991 3947 3902 3668 3396 2888 2973 2563 2265 2162 1922 1533 1402 1338 1095 900 688 783 1084 967 797 924 1040 1010 735 531 458 582 584 635 638 483 378 364 428 522
5162 5423 5366 5062 4605 4266 4172 4156 4124 3870 3480 3184 3032 2844 2483 2190 1920 1398 1380 1390 1074 1128 1043 982 1094 1288 597 742 1008 940 658 502 527 614 606 666 571 542 522 474 521 584
5230 5475 5424 5151 4694 4624 4242 4159 3952 3862 3550 3362 3230 2971 2522 2205 1960 1320 1290 1221 1209 1180 1128 658 1000 1056 1021 761 862 784 626 504 441 501 582 550 581 640 567 594 645 634
5359 5386 5381 4926 4558 4507 4110 3864 3698 3889 3797 3728 3402 3021 2531 2170 1932 1354 1116 1396 1159 1175 906 788 976 985 1090 951 871 724 653 690 637 598 559 556 626 558 582 668 660 691
5422 5303 5202 4888 4338 4320 4201 3751 3487 3540 3744 3562 3071 2684 2478 1932 1666 1330 1359 1376 1196 899 869 860 887 1093 1211 760 934 881 804 765 776 690 604 661 701 717 752 828 841 821
5464 5362 5088 4682 4343 4194 3886 3444 3236 3266 3591 3329 3081 2722 2456 1795 1520 1306 1316 1468 1254 1202 1032 975 1027 1149 1333 1137 772 872 880 984 846 658 646 854 854 854 902 946 971 971
5471 5257 5100 4644 4417 4072 3704 3372 3092 2990 3194 3177 3024 2606 2092 1685 1198 1275 1322 1412 1492 1280 1040 1134 1102 1002 1304 1196 1074 1035 1252 1032 659 541 791 826 868 916 902 798 720 751
5514 5328 5051 4487 4104 4165 3883 3574 3242 3098 3232 3390 3164 2709 1855 1698 1205 1169 1049 1318 1425 1266 1167 1164 1102 928 1075 1230 1218 1194 1059 918 830 826 832 839 886 946 922 639 664 607
5653 5154 4729 4500 4186 4130 4038 3772 3488 3233 3240 3235 2940 2412 1752 1231 808 831 1106 1322 1470 1136 1200 1040 969 950 1043 1154 1193 1248 1267 865 736 929 1048 974 957 898 707 658 711 464
5041 4881 4748 4581 4152 4219 4281 3980 3488 3345 3266 3134 2934 2366 1743 809 878 876 1103 1286 1256 1052 1210 1142 938 902 1098 861 1012 1332 1161 822 728 952 1020 966 1013 1034 962 724 653 564
4979 4693 4652 4424 4244 4213 4325 4228 3832 3820 3546 3420 2868 2150 1348 883 953 885 841 746 615 837 1090 1145 942 977 698 734 718 606 1045 1139 1042 1030 1206 1180 1072 1166 1141 949 657 548
4680 4570 4365 4243 4148 4004 3874 3858 3848 3654 3562 3495 2808 2056 1325 1020 1044 982 864 704 590 938 1296 1414 1179 873 560 623 558 424 560 1288 851 802 718 836 954 972 972 936 872 869
4690 4468 4265 4069 3959 3959 3965 3994 3862 3723 3672 2984 2724 2189 1121 1152 1172 1090 961 831 936 1294 1150 907 1252 660 506 514 506 460 412 658 696 272 192 555 736 715 815 936 942 898
4480 4161 4085 3917 3742 3672 3887 3919 3792 3554 3053 3140 2554 2317 1430 1716 1233 1158 1071 918 1331 1426 1274 1188 1261 846 548 539 583 570 544 546 782 303 197 482 634 685 828 947 971 966
3962 3897 3642 3533 3075 3333 3567 3770 3800 3765 3220 3213 2596 2160 1719 1922 1427 1382 1600 1100 1082 1402 1420 1406 1414 1000 735 647 622 629 590 464 722 301 213 582 761 827 974 1086 1227 1242
3773 3566 3460 3261 3121 3200 3123 3410 3766 3732 3616 3373 2994 2200 2066 1761 1669 1759 1936 1756 1778 1488 1324 1186 1277 810 736 677 690 624 539 232 628 510 574 755 897 968 1129 1342 1470 1598
3500 3413 3086 3233 3196 3053 3010 3056 3387 3585 3514 3305 2987 2608 2029 1870 2008 1642 1466 1715 1172 1185 726 1271 985 813 700 550 486 408 206 360 616 614 816 1029 1199 1244 1330 1410 1541 1291
3205 3002 3251 3146 3135 3116 2953 2977 3146 3304 3274 3196 3001 2479 2089 1898 1785 1658 1537 1462 1176 852 853 1151 1197 1394 677 575 520 485 434 481 912 1151 1318 1482 1444 1360 1516 1473 1446 1518
3338 3058 3157 2995 3041 2549 2629 2848 2950 3129 3238 2847 2434 2198 2030 1910 1671 1558 1430 1726 1053 1189 782 1166 422 517 588 528 744 841 483 622 1438 1754 1565 1276 1689 1874 1728 1744 1643 1498
2797 3040 3045 2934 2911 2910 2834 2904 3012 2607 2594 2571 2341 2113 1976 1775 1393 1265 1435 1597 1534 1249 873 736 302 494 386 784 786 452 421 491 1276 1612 1826 1639 2110 1575 1831 1502 1275 1609
Wind_Speed
20 20 20 19 18 17 18 19 19 20 20 20 22 22 22 23 23 26 27 28 29 26 25 24 24 23 23 23 23 21 19 20 17 19 18 19 19 19 19 20 19 20
21 21 20 19 19 19 19 19 20 21 21 21 21 23 24 25 27 27 28 29 30 28 28 27 26 24 23 24 24 23 22 21 19 19 20 20 20 20 19 19 19 19
22 21 21 21 20 21 21 20 21 22 23 23 24 24 25 27 29 28 30 29 30 29 30 30 29 26 24 23 25 24 23 22 21 20 21 21 21 21 20 20 19 19
22 22 22 22 21 21 21 21 21 22 22 23 25 27 28 29 30 32 32 32 31 30 31 31 30 29 27 25 25 25 24 23 23 21 22 22 22 21 22 21 19 18
22 22 22 22 21 20 21 21 22 22 23 25 29 30 31 31 33 35 34 34 33 32 32 32 32 31 31 29 28 25 26 25 25 23 22 22 23 23 23 23 21 18
23 22 22 21 21 20 21 22 23 24 26 30 33 33 34 36 36 37 37 37 36 36 36 35 35 34 33 32 31 29 27 27 27 27 24 23 24 25 24 25 23 21
23 22 21 21 21 23 24 25 25 26 28 31 33 34 36 39 39 38 38 37 37 37 37 38 38 36 34 34 34 33 30 29 27 29 28 27 27 25 26 25 24 23
23 21 22 22 24 25 26 27 27 27 29 30 34 34 36 38 40 39 37 37 37 38 37 37 39 37 37 38 39 36 33 33 30 29 29 28 28 28 27 26 25 24
21 22 23 25 27 27 28 28 28 29 30 33 34 35 35 35 38 38 37 37 36 36 36 35 36 36 37 41 42 38 34 32 32 30 29 29 29 27 26 26 25 25
22 22 25 27 28 27 28 28 28 30 32 35 36 36 37 36 37 36 35 35 35 35 36 36 36 36 35 37 40 38 34 32 30 29 28 28 27 27 27 27 25 25
23 25 26 27 28 27 29 29 30 32 34 38 39 38 39 39 39 37 35 36 36 38 39 39 38 36 34 34 35 35 35 35 32 29 27 25 25 26 27 27 26 25
26 26 27 28 27 27 28 30 31 33 36 38 41 41 41 41 42 39 37 37 38 39 40 41 41 39 36 33 33 33 33 35 33 29 26 25 25 26 27 27 27 26
26 26 26 27 25 25 26 29 31 33 36 38 40 41 42 42 42 42 40 41 40 40 41 42 42 40 37 34 32 31 31 32 31 29 26 26 25 24 26 27 27 27
24 23 24 23 24 25 28 30 30 31 34 37 39 41 42 43 43 43 42 42 43 42 42 41 41 40 38 36 34 32 29 29 30 28 26 24 23 23 25 26 26 27
23 22 21 22 24 26 29 30 31 32 35 37 40 42 42 42 42 43 43 43 45 45 44 42 40 39 37 37 38 35 30 27 28 29 26 22 21 23 26 27 27 28
23 23 23 24 24 26 28 30 32 35 38 40 42 45 45 44 43 43 43 44 46 47 47 43 39 38 38 41 41 38 32 28 28 29 26 23 23 25 26 26 26 27
23 24 25 27 28 27 28 30 33 35 37 40 44 46 47 47 46 47 46 46 46 48 49 43 39 38 44 43 43 40 35 30 29 29 26 23 23 24 24 24 25 26
23 25 26 27 29 30 31 33 34 36 37 40 44 48 48 50 50 49 48 49 46 46 47 43 39 42 46 44 43 43 38 32 29 27 24 21 21 22 23 23 24 25
26 27 27 28 29 31 32 34 36 38 39 40 45 48 50 51 52 50 48 49 48 46 44 41 38 45 46 47 45 44 42 36 28 22 18 17 18 21 22 24 25 26
28 29 29 29 30 31 32 34 36 37 40 42 44 48 50 52 52 51 49 50 48 45 42 40 38 45 48 48 46 45 42 39 29 21 16 15 17 20 23 25 26 27
30 30 30 31 32 33 34 35 37 38 40 43 45 47 49 50 51 51 50 51 51 47 43 40 38 47 48 48 47 46 42 39 31 24 19 18 19 20 23 25 26 27
33 33 34 34 35 36 37 37 40 41 42 44 45 48 48 46 47 51 54 55 53 47 44 42 39 46 45 46 46 46 43 39 33 27 22 21 21 22 25 28 28 28
35 36 36 36 38 39 40 41 42 44 45 46 48 47 48 48 48 50 55 57 54 46 41 41 39 44 46 47 47 47 47 40 36 32 28 25 25 26 28 29 29 27
37 37 38 39 41 43 44 44 44 47 48 51 52 50 48 50 50 50 55 54 50 44 41 40 42 43 46 47 48 53 49 44 41 37 32 30 31 31 33 34 33 33
38 40 41 42 44 46 46 47 48 51 52 55 55 51 48 51 52 50 48 43 39 40 43 43 39 41 46 48 53 53 48 45 45 42 37 32 32 35 37 38 38 39
40 42 42 44 47 48 47 47 50 52 54 57 57 53 50 52 54 45 36 33 36 41 40 42 40 43 49 55 51 49 50 48 46 43 36 31 33 36 37 38 39 43
Wind_Direction
305 303 305 306 307 306 308 313 314 316 318 323 324 323 323 321 321 320 320 318 318 319 318 316 315 313 311 310 309 308 305 303 299 299 299 299 298 299 299 302 303 304
305 305 302 304 303 304 307 312 315 317 321 327 326 323 325 323 324 322 321 319 319 320 318 317 316 316 314 311 310 310 307 302 300 294 298 302 297 297 297 299 300 303
305 306 308 308 308 313 317 316 317 320 324 331 331 328 327 325 324 323 320 321 320 321 319 317 316 315 314 312 309 309 307 305 299 297 297 299 297 294 291 293 297 304
310 311 307 309 311 316 317 319 321 322 327 331 332 329 325 322 322 322 320 321 319 319 317 316 315 312 310 309 308 306 308 304 301 296 296 297 296 294 294 292 293 298
318 314 311 313 318 320 321 325 328 327 331 332 329 325 321 319 319 319 317 316 315 314 311 312 311 307 304 304 305 303 304 304 302 299 295 296 296 296 292 291 293 297
321 318 320 323 323 324 324 325 325 326 331 333 331 328 327 324 321 319 317 316 315 313 310 308 306 305 301 300 301 302 301 302 301 300 298 296 296 296 292 292 293 296
323 323 328 326 327 328 329 331 331 330 330 331 331 333 330 328 325 320 318 320 322 318 313 308 304 301 298 298 301 301 298 299 297 296 296 294 294 294 292 290 292 295
324 325 327 324 328 329 334 339 341 339 335 336 339 338 334 333 330 324 321 322 326 324 320 316 309 300 298 300 303 302 299 297 297 293 292 294 293 295 293 291 293 298
323 325 324 327 331 330 338 344 346 343 341 344 344 342 336 334 334 332 327 324 324 324 322 324 316 307 301 303 305 304 299 298 300 299 295 294 297 298 294 292 298 299
322 322 327 331 334 331 340 349 348 346 344 343 342 341 339 336 332 330 328 326 326 324 325 326 323 315 310 308 308 308 302 300 301 299 295 295 298 298 296 297 299 299
324 326 330 333 334 331 341 349 351 348 343 341 340 344 341 337 333 331 328 325 325 326 327 326 324 319 315 313 308 307 308 306 303 298 295 295 296 296 296 296 298 300
326 329 331 332 333 336 343 349 350 347 344 342 341 342 338 336 333 331 325 322 322 324 325 325 323 320 315 311 308 307 311 311 306 300 297 297 296 297 299 300 300 302
331 334 331 333 335 338 338 343 348 349 346 343 340 340 337 334 331 328 323 321 320 319 322 322 320 317 312 311 307 305 307 311 309 304 300 296 295 299 301 302 303 304
333 333 333 335 335 332 333 338 343 343 340 338 336 336 334 332 329 325 321 318 317 316 316 317 315 311 311 311 309 304 304 308 309 305 300 296 296 300 304 305 306 306
323 327 330 333 334 332 333 336 338 338 335 336 335 333 330 332 327 323 318 316 314 313 312 312 311 308 307 310 311 309 305 308 310 307 300 294 293 297 303 307 306 305
324 329 333 336 340 342 340 338 337 334 333 332 331 330 328 328 325 321 318 315 312 309 308 309 308 304 304 311 310 307 306 303 305 303 297 292 290 292 298 302 302 300
325 334 336 338 342 347 347 341 337 331 328 326 324 324 324 324 324 323 320 317 314 309 307 307 305 300 302 306 310 310 302 297 296 295 292 289 290 291 292 294 293 296
323 326 329 331 334 340 345 344 335 331 328 322 319 320 320 323 324 321 319 318 314 310 308 306 304 301 302 304 306 308 303 294 288 286 286 287 290 292 291 291 294 299
314 317 321 322 324 330 334 334 334 331 328 326 319 317 317 321 321 319 317 317 315 312 309 306 301 300 302 302 302 305 307 300 287 283 287 291 290 291 291 293 296 297
312 312 314 316 318 321 325 327 327 328 325 321 318 315 316 318 320 319 316 316 314 308 302 300 297 297 300 299 298 303 306 301 292 289 294 292 288 288 290 294 295 296
314 311 312 314 316 316 318 320 318 316 321 318 318 317 314 315 319 319 315 316 314 306 299 298 294 296 300 300 300 304 307 299 290 287 285 285 286 288 290 292 292 296
309 309 312 313 312 312 314 315 313 312 314 314 314 312 311 315 317 315 313 313 310 304 299 298 293 298 299 299 300 301 302 290 285 282 278 279 281 281 284 287 292 295
308 310 311 311 310 311 312 314 315 312 311 311 312 308 307 311 317 315 310 310 308 301 297 295 297 299 301 302 300 301 293 285 281 278 275 273 273 275 278 282 285 291
304 306 307 308 309 310 311 311 311 310 311 308 310 311 310 310 313 315 312 306 302 298 299 298 292 296 303 303 303 300 296 285 277 276 273 268 270 274 278 282 286 287
298 300 303 307 307 308 308 308 308 307 306 305 307 307 307 305 309 313 311 303 300 299 293 296 297 302 308 300 294 298 297 287 280 275 271 272 274 274 278 280 281 284
291 295 299 302 303 303 302 303 303 305 308 308 306 306 305 308 307 312 313 305 300 300 304 304 303 292 291 292 297 301 301 292 286 279 278 284 284 278 282 287 284 282